{"data":{"norad_id":40310,"intl_designator":"2014-072A","name":"YAOGAN-24","alt_names":[],"object_type":"PAYLOAD","status":"ACTIVE","operator":null,"country":"PRC","launch_date":"2014-11-20","launch_site_code":"JSC","launch_vehicle":null,"mission":null,"orbit_class":"UNKNOWN","rcs_meters":4.2274,"size_class":null,"mass_kg":null,"dimensions":null,"purposes":["earth_obs"],"wikipedia_slug":null,"has_3d_model":false,"image_url":null,"decayed_at":null,"tle_current":{"epoch":"2026-05-25T05:44:58.599168Z","epoch_age_seconds":48216,"freshness":"FRESH","line1":"1 40310U 14072A   26145.23956712  .00000186  00000+0  34586-4 0  9999","line2":"2 40310  98.1456 282.3875 0013506 342.8567  17.2184 14.76186827620335","mean_motion":14.76186827,"eccentricity":0.0013506,"inclination_deg":98.1456,"raan_deg":282.3875,"arg_perigee_deg":342.8567,"mean_anomaly_deg":17.2184,"bstar":3.4586e-5,"rev_number":62033,"period_min":97.54862824013,"perigee_km":631.90580256359,"apogee_km":650.86693909287,"semimajor_km":7019.5233708282,"source":"CELESTRAK","updated_at":"2026-05-25T13:38:12.787301Z"}}}